Location: ????????
(55.5667°N, 37.5833°E)
Time: 01:47:37
(UTC+00:00)

Cosmos 2285 Rocket - Pass Details

Date: 14 April 2026
Orbit: 970 x 997 km, 74.0° (Epoch: 20 May)

Event Time Altitude Azimuth Distance (km) Brightness Sun altitude
Exits shadow 20:10:27 33° 205° (SSW) 1,608 4.8 -22.7°
Maximum altitude 20:13:35 89° 122° (ESE) 991 3.9 -22.9°
Drops below altitude 10° 20:19:58 10° 28° (NNE) 2,740 6.9 -23.2°
Sets 20:22:30 0° 29° (NNE) 3,688 7.6 -23.3°
